Location: Unspecified
(0.0000°N, 0.0000°E)
Time: 02:41:07
(UTC+00:00)

YAOGAN 20C - Pass Details

Date: 24 April 2026
Orbit: 800 x 1378 km, 63.4° (Epoch: 11 May)

Event Time Altitude Azimuth Distance (km) Brightness Sun altitude
Rises 20:00:11 0° 200° (SSW) 3,472 7.9 -29.6°
Reaches altitude 10° 20:02:45 10° 197° (SSW) 2,475 7.0 -30.3°
Enters shadow 20:03:06 12° 197° (SSW) 2,343 6.9 -30.3°
